Location: Rounton
(54.4000°N, 1.3500°W)
Time: 03:04:54
(UTC+00:00)

Envisat - Pass Details

Date: 29 October 2021
Orbit: 764 x 766 km, 98.2° (Epoch: 28 November)

Event Time Altitude Azimuth Distance (km) Brightness Sun altitude
Rises 05:29:20 0° 20° (NNE) 3,247 6.6 -22.5°
Reaches altitude 10° 05:31:54 10° 31° (NNE) 2,315 6.0 -22.2°
Maximum altitude 05:36:27 32° 94° (E) 1,306 4.8 -21.5°
Drops below altitude 10° 05:40:57 10° 157° (SSE) 2,299 5.7 -20.9°
Sets 05:43:29 0° 167° (SSE) 3,220 6.3 -20.5°
